BEIDOU-3 G4

Last updated on Mon Sep 07 2026 00:03:02 GMT+0000 (Coordinated Universal Time)

1 56564U 23066A 26249.54822814 -.00000296 00000+0 00000+0 0 9996 2 56564 0.4403 354.6950 0005298 201.2641 127.1008 1.00272728 12204
UTC large
Height (km)
Speed (km/s)
/
Latitude / Longitude
Inclination (degrees)
Orbital Period (minutes)
Azimuth
Elevation
Range (km)
Doppler Factor

Next 0 passes for location: London (51.5072 / 0.1276)

No passes found over London.
BEIDOU-3 G4